This is the latest recevied weather packets stored in our database for station/object LU1MQF-10. If no packets are shown the sender has not sent any weather packets the latest 10 day(s).
| Time | Temp. | Humidity | Pressure | Rain* | Wind** | Luminosity | Snow |
|---|---|---|---|---|---|---|---|
| 1778023788 | 18.89° C | 42% | 1017.2 hPa | - | - | - | - |
| 1778022891 | 18.33° C | 42% | 1017.1 hPa | - | - | - | - |
| 1778022887 | 18.33° C | 42% | 1017.1 hPa | - | - | - | - |
| 1778021991 | 18.33° C | 43% | 1016.9 hPa | - | - | - | - |
| 1778021987 | 18.33° C | 43% | 1016.9 hPa | - | - | - | - |
| 1778021086 | 17.78° C | 45% | 1016.7 hPa | - | - | - | - |
| 1778020190 | 18.33° C | 44% | 1016.9 hPa | - | - | - | - |
| 1778020186 | 18.33° C | 44% | 1016.9 hPa | - | - | - | - |
| 1778019286 | 18.33° C | 42% | 1016.9 hPa | - | - | - | - |
| 1778018391 | 18.33° C | 42% | 1016.8 hPa | - | - | - | - |
| 1778018386 | 18.33° C | 42% | 1016.8 hPa | - | - | - | - |
| 1778017489 | 18.33° C | 41% | 1016.8 hPa | - | - | - | - |
| 1778017485 | 18.33° C | 41% | 1016.8 hPa | - | - | - | - |
| 1778016589 | 18.89° C | 40% | 1016.7 hPa | - | - | - | - |
| 1778016585 | 18.89° C | 40% | 1016.7 hPa | - | - | - | - |
| 1778015689 | 18.89° C | 39% | 1016.7 hPa | - | - | - | - |
| 1778015685 | 18.89° C | 39% | 1016.7 hPa | - | - | - | - |
| 1778014791 | 19.44° C | 39% | 1016.6 hPa | - | - | - | - |
| 1778014785 | 19.44° C | 39% | 1016.6 hPa | - | - | - | - |
| 1778013889 | 19.44° C | 38% | 1016.7 hPa | - | - | - | - |
| 1778013885 | 19.44° C | 38% | 1016.7 hPa | - | - | - | - |
| 1778012990 | 19.44° C | 38% | 1016.7 hPa | - | - | - | - |
| 1778012984 | 19.44° C | 38% | 1016.7 hPa | - | - | - | - |
| 1778012084 | 19.44° C | 38% | 1016.5 hPa | - | - | - | - |
| 1778011189 | 19.44° C | 38% | 1016.4 hPa | - | - | - | - |
* Rain since midnight (hover to see other rain measurements)
** Current wind speed in m/s (hover to see current wind gust speed)